GFSFLT2_prec_cthk_000.txt.gz
RH
64 64 71 72 82 83 86 88 86 86 82 80 84 88 93 92 91 92 93 93 93 94 91 91 80 70 73
56 60 63 61 66 76 82 85 88 92 91 84 84 88 90 96 95 98 98 99 96 98 96 90 86 75 75
58 59 61 60 61 63 69 77 86 93 92 88 89 87 90 92 99 94 96 99 97 99 97 89 80 76 77
69 66 66 64 69 66 65 70 77 91 98 98 89 88 97 99 98 98 98 99 99 99 96 91 79 80 76
64 72 76 73 74 72 68 68 66 91 93 98 97 97 92 98 98 94 98 98 99 98 96 83 79 74 72
60 57 56 62 71 76 78 78 74 68 89 91 96 96 98 97 99 96 98 99 98 96 95 86 81 76 67
63 57 59 57 65 68 73 72 82 81 83 97 97 98 99 96 98 98 98 98 97 96 92 83 76 67 58
64 57 58 59 65 69 73 70 73 84 84 90 96 97 97 98 98 98 98 98 98 95 84 74 66 57 49
62 60 60 62 70 77 76 80 74 85 92 97 99 97 99 98 98 98 98 98 96 84 71 63 54 50 41
61 62 69 68 72 78 85 82 86 91 98 99 98 99 98 98 98 98 98 96 82 71 62 54 51 42 32
65 68 71 72 74 76 88 93 95 98 99 99 98 98 98 98 98 98 93 82 72 60 57 53 41 33 29
72 78 78 75 76 82 97 98 99 98 97 98 98 98 98 97 97 92 77 62 55 57 45 34 29 31 29
85 84 84 78 84 98 98 98 98 98 98 98 98 98 98 97 83 69 62 56 48 36 31 28 27 24 27
83 85 84 88 97 98 98 98 97 97 98 97 97 97 89 77 65 60 53 41 33 33 31 29 29 31 32
86 87 93 97 98 97 97 97 97 97 97 97 94 82 71 65 53 43 35 34 35 34 31 31 32 35 39
94 96 95 97 97 97 97 97 97 97 97 89 77 67 52 45 40 34 36 36 34 32 32 34 40 44 47
97 94 96 97 97 97 97 97 97 97 87 73 57 48 43 34 34 35 35 32 31 32 36 41 49 56 62

GFSFLT2_prec_cthk_006.txt.gz
RH
44 40 38 40 46 53 59 65 65 64 64 67 67 79 80 86 93 98 95 96 96 95 97 95 86 85 94
34 34 36 35 39 46 50 54 57 63 70 75 82 72 80 80 85 87 93 98 98 97 98 98 94 85 92
32 27 24 24 27 34 39 48 57 60 62 70 89 86 81 81 80 77 84 92 94 94 98 99 96 89 92
40 34 27 25 31 32 32 40 48 59 62 62 63 86 88 76 79 83 80 85 88 91 92 99 95 96 92
35 32 31 27 28 31 42 40 48 57 63 59 62 60 77 72 72 76 77 78 81 87 92 96 96 98 97
41 34 30 27 34 42 52 50 47 59 65 67 72 68 59 58 58 61 70 75 73 74 85 97 98 99 99
42 39 36 34 58 52 51 60 54 54 68 61 66 63 61 56 56 58 60 64 74 75 77 96 98 99 96
43 55 56 66 56 56 61 65 61 56 66 63 65 62 58 53 53 54 57 64 73 84 88 97 99 99 99
42 49 52 48 58 72 75 66 69 69 65 67 60 59 57 54 57 56 58 64 77 97 97 96 99 99 98
33 37 46 59 68 82 83 86 86 68 67 71 64 63 60 56 64 67 66 70 81 98 98 98 98 98 98
38 47 62 78 87 88 89 86 82 74 73 72 65 69 73 73 84 81 77 90 95 98 98 98 98 97 98
50 69 83 89 88 88 88 88 87 80 80 84 76 77 86 91 92 90 90 95 98 98 98 98 97 97 95
68 83 84 87 90 91 92 89 89 90 89 88 87 84 90 95 97 97 98 97 97 97 97 97 97 96 90
81 82 87 94 96 92 90 91 91 95 96 96 97 97 96 97 97 97 97 97 97 97 97 96 94 88 79
87 92 95 94 91 92 92 94 96 96 96 96 96 97 97 97 97 97 97 97 97 96 91 86 80 75 70
92 96 95 91 92 95 96 97 97 97 97 97 97 96 96 97 97 97 96 81 83 76 70 67 63 58 51
97 96 95 95 97 97 97 97 97 97 97 97 94 89 76 75 80 68 60 58 59 56 53 47 43 42 44

GFSFLT2_prec_cthk_009.txt.gz
RH
41 43 43 35 34 33 27 22 25 31 36 39 46 52 72 72 69 72 80 87 85 84 96 98 98 99 97
49 41 39 38 37 33 27 28 22 17 21 32 39 49 55 70 79 80 78 81 85 89 92 92 98 97 97
47 42 42 43 38 36 32 24 24 24 28 27 32 36 43 60 74 81 89 84 81 85 88 92 94 96 95
43 37 35 32 31 27 23 22 24 30 32 40 28 31 37 49 67 75 82 93 85 84 84 87 91 90 92
43 45 40 32 32 34 35 31 31 43 44 35 36 37 41 48 62 72 76 87 88 84 81 79 80 83 85
51 49 43 40 41 46 50 53 55 44 46 37 46 43 41 46 55 66 75 71 78 78 75 73 69 70 74
55 53 47 37 49 53 63 64 65 42 51 57 56 55 56 53 61 67 66 69 60 60 60 62 69 64 65
49 47 48 43 46 51 52 51 48 63 74 64 66 56 54 59 62 67 67 62 63 60 57 58 60 66 66
45 44 40 40 51 54 56 65 65 73 78 76 76 74 66 60 61 66 63 62 63 60 56 60 63 74 79
31 27 38 46 58 68 83 86 84 75 86 87 78 76 68 63 64 65 63 62 61 63 65 61 72 82 88
27 36 44 56 75 88 94 96 89 86 89 87 83 80 73 64 66 71 70 69 73 75 76 69 75 96 98
38 46 64 86 90 94 95 90 85 80 82 81 73 76 73 73 70 71 75 74 77 78 78 79 82 96 98
53 77 89 90 90 93 93 92 88 87 89 87 82 82 81 79 77 80 81 80 83 81 84 81 92 97 97
78 89 91 94 95 94 90 92 95 94 97 95 92 91 86 83 82 88 94 97 92 88 89 94 97 97 97
90 95 96 95 94 92 92 93 97 97 97 97 97 97 92 91 93 96 97 97 97 96 96 96 97 97 96
98 98 97 95 93 95 97 97 97 97 97 98 97 97 96 97 96 97 97 97 97 97 97 97 97 97 96
98 98 97 95 98 98 97 97 97 97 97 97 95 90 97 97 97 97 97 97 97 97 97 97 96 93 87

GFSFLT2_prec_cthk_012.txt.gz
RH
34 22 24 27 29 37 41 50 45 41 43 46 35 29 27 32 38 43 51 59 69 69 70 73 85 88 88
37 38 36 37 40 40 37 43 43 42 39 39 37 32 31 28 32 35 36 47 63 66 76 71 75 79 86
43 43 42 39 42 41 42 36 39 46 43 38 40 43 41 42 30 21 26 33 45 65 70 74 80 81 82
49 49 44 37 38 36 33 37 40 39 40 48 48 49 48 42 37 32 30 30 35 53 72 76 80 83 83
56 51 40 35 38 41 48 34 33 41 47 46 50 50 48 39 34 38 39 36 37 45 61 79 77 83 87
59 51 42 45 44 45 47 46 42 27 58 51 48 42 35 37 40 43 43 42 38 41 55 65 80 87 84
67 55 44 48 52 48 46 49 42 39 49 42 43 47 50 51 51 50 51 47 44 41 48 60 73 85 81
59 56 56 55 49 46 46 48 51 56 70 65 79 71 63 71 64 68 60 55 49 43 48 63 66 74 67
57 57 48 37 41 50 52 64 80 90 98 93 84 76 84 75 67 78 71 62 53 47 50 58 62 66 58
46 38 33 38 48 60 75 86 92 96 97 94 89 86 82 84 78 78 75 68 60 52 56 56 58 60 60
39 35 40 52 69 87 93 95 92 96 97 97 96 96 88 90 84 80 77 75 66 60 71 69 67 71 66
45 54 67 75 88 95 96 96 96 96 95 92 87 90 89 85 86 83 82 77 71 76 78 72 74 74 75
68 75 87 94 95 95 95 94 95 94 98 97 90 87 84 84 85 85 80 78 77 81 79 82 80 80 80
84 94 97 97 97 97 95 95 97 98 98 98 97 95 92 88 87 85 81 82 83 85 84 86 89 83 87
98 97 97 96 94 96 97 98 98 97 97 97 97 97 97 95 87 87 87 87 87 88 88 88 89 86 87
98 98 97 98 98 98 98 98 97 97 97 97 97 98 95 93 90 86 88 90 90 92 94 90 94 92 88
98 98 98 98 98 98 98 98 98 98 97 97 92 97 97 95 96 97 98 98 98 98 97 94 95 97 94

GFSFLT2_prec_cthk_015.txt.gz
RH
29 31 31 32 32 39 40 44 37 34 34 36 35 36 42 48 51 38 31 46 52 58 56 63 77 79 78
35 38 34 33 39 44 42 37 33 28 32 34 43 49 35 42 47 55 44 40 45 39 40 43 55 66 77
45 42 44 47 46 46 43 32 26 30 41 42 37 37 41 37 53 51 56 48 46 42 42 41 42 53 65
51 51 55 45 56 56 42 35 30 35 38 33 36 36 47 55 56 63 61 57 46 40 44 45 42 46 53
52 55 53 45 48 49 49 38 33 46 40 33 40 41 52 55 50 56 55 49 44 39 37 36 37 43 48
65 61 53 49 50 53 51 52 39 35 41 37 52 47 44 50 54 56 58 53 47 39 35 34 35 34 39
63 60 54 54 58 53 51 40 36 36 54 51 64 64 71 64 59 57 62 58 52 41 39 34 34 35 36
63 57 60 61 59 51 41 42 47 55 73 87 94 96 87 82 71 67 59 58 58 53 47 43 42 37 35
58 61 62 57 47 44 48 61 73 85 92 95 95 92 88 80 73 70 71 64 56 52 44 40 38 39 32
52 47 44 42 49 62 74 82 88 85 92 96 96 97 92 86 85 81 71 75 65 58 47 39 36 37 33
47 49 57 65 76 84 91 94 90 87 91 91 94 97 99 95 95 77 81 87 71 70 64 53 47 42 48
67 73 80 89 94 96 96 95 97 95 94 97 92 95 94 93 96 89 76 80 79 82 77 67 64 67 71
82 91 97 96 97 96 95 95 95 95 96 98 97 90 87 94 87 89 87 87 83 80 76 76 84 76 72
96 97 97 96 96 98 98 98 98 96 98 98 98 95 89 86 85 87 88 88 84 84 90 92 86 84 85
98 97 98 98 98 98 98 98 98 98 97 98 97 96 95 90 86 84 84 88 89 89 91 92 94 88 96
98 98 98 98 98 98 98 98 98 98 98 97 97 97 97 97 90 88 87 88 88 92 96 90 94 95 97
98 98 98 98 98 98 98 98 98 96 93 96 98 98 98 97 92 94 93 95 92 96 91 86 96 98 92

GFSFLT2_prec_cthk_021.txt.gz
RH
26 27 27 27 25 31 39 43 48 47 52 57 48 42 48 44 42 45 51 50 54 54 54 61 63 52 49
31 33 33 39 36 36 41 45 52 53 58 54 52 47 41 46 47 52 50 46 48 49 50 48 47 56 56
43 39 47 48 46 49 45 46 47 53 52 50 49 46 50 51 49 45 45 48 49 45 46 48 58 62 60
56 55 53 51 52 49 41 46 51 49 50 52 53 53 44 37 35 33 38 39 43 43 42 49 58 60 51
57 57 50 46 52 50 55 54 46 53 50 41 39 35 33 36 38 39 44 48 51 51 48 48 57 61 53
59 56 52 55 53 56 57 59 51 55 54 49 59 54 56 62 72 76 74 64 57 54 57 60 56 52 47
60 59 60 58 57 63 65 69 73 72 78 72 78 76 83 84 92 94 94 92 88 87 72 52 49 44 44
64 62 62 63 68 71 77 83 88 90 87 71 81 79 81 86 88 97 98 97 95 97 92 82 65 48 41
62 61 64 75 92 93 93 93 88 90 90 85 76 75 80 81 86 92 96 98 98 92 86 81 62 48 39
56 73 91 94 98 99 97 95 95 90 87 90 86 86 79 84 84 88 93 95 88 83 79 68 58 45 39
91 94 95 97 98 98 98 98 95 95 94 98 94 92 91 82 83 90 90 94 95 89 85 66 52 42 48
96 97 98 97 98 98 98 99 99 99 98 99 98 98 90 88 88 86 94 97 98 98 93 69 52 48 48
98 98 99 98 98 97 98 98 96 96 98 99 98 98 89 90 92 89 91 97 98 98 98 88 60 54 50
98 97 98 97 98 98 98 97 97 96 97 98 98 97 88 89 92 91 97 97 98 95 90 82 72 58 52
98 97 98 98 98 98 98 97 98 97 96 95 94 93 89 87 91 97 94 96 97 91 98 90 79 65 63
96 93 92 97 98 98 98 98 97 98 97 98 93 88 88 90 90 91 97 98 95 95 92 97 96 84 79
82 81 80 85 93 98 97 98 98 98 98 96 98 92 89 89 89 90 98 98 98 98 97 96 95 88 84

GFSFLT2_prec_cthk_024.txt.gz
RH
24 25 27 27 31 40 47 50 49 45 44 45 45 46 52 54 54 53 53 51 50 50 52 52 52 60 60
28 29 30 31 37 40 42 43 48 40 43 49 53 49 49 52 51 50 51 50 55 54 54 52 53 53 52
38 35 38 41 41 43 37 34 38 43 48 49 52 52 52 53 53 54 58 53 48 47 46 48 50 50 52
48 46 46 52 51 45 37 41 43 47 47 45 46 46 43 45 41 38 37 39 40 41 42 42 42 43 46
46 54 56 50 49 48 50 46 51 59 52 58 59 61 62 60 50 43 43 47 48 46 46 50 52 53 55
61 56 52 55 54 57 54 60 58 76 84 82 85 77 76 70 67 75 75 77 82 85 83 75 55 51 53
57 56 58 58 60 67 78 86 85 83 91 81 85 82 71 67 75 75 80 86 89 97 95 91 83 67 55
60 59 63 74 91 93 91 89 89 87 86 79 80 77 76 67 68 70 77 87 96 98 98 98 94 87 75
58 76 94 97 98 94 92 94 90 89 86 88 85 83 81 77 71 70 80 91 93 95 90 90 95 94 89
90 91 92 95 99 98 97 95 94 90 89 96 93 93 89 82 80 81 87 88 95 98 97 92 87 88 84
89 91 95 96 97 98 99 98 94 93 94 98 95 97 94 85 80 84 87 94 97 98 98 97 86 79 76
94 96 96 96 97 98 98 98 98 96 97 99 97 98 89 88 87 84 91 97 97 98 94 87 74 67 61
96 96 97 97 97 97 97 98 97 97 98 98 98 97 90 94 91 90 90 91 98 98 95 70 76 51 44
93 89 87 87 94 98 97 97 96 96 97 96 98 93 92 94 94 89 92 93 93 97 86 72 66 66 61
86 82 79 77 86 97 98 97 98 97 96 93 90 89 91 93 93 97 95 96 96 91 91 75 69 68 63
82 80 76 78 83 95 98 98 97 97 97 97 89 87 89 95 97 95 97 98 98 98 93 89 69 66 65
73 75 77 78 79 86 96 98 97 97 98 98 95 88 87 97 97 97 97 96 98 98 97 91 78 67 65

GFSFLT2_prec_cthk_027.txt.gz
RH
20 19 21 22 27 33 38 44 47 47 45 42 44 44 44 48 54 54 55 50 56 56 56 56 56 54 53
25 20 23 24 27 34 41 49 54 48 39 44 48 48 49 50 49 49 50 51 51 50 51 56 56 56 56
33 28 31 36 40 44 46 46 46 46 47 49 50 51 50 51 53 54 51 51 55 58 59 58 57 56 56
39 41 47 52 51 49 43 46 48 46 47 50 54 61 63 65 64 62 61 59 56 43 39 44 44 46 47
48 57 55 52 50 47 49 50 64 80 82 79 79 79 80 78 74 71 67 63 58 54 50 46 47 45 41
56 54 51 48 52 66 85 88 79 87 85 77 84 79 78 76 74 77 73 67 70 72 76 79 79 79 76
52 49 56 73 90 89 91 92 90 91 92 83 84 79 79 79 77 74 69 65 68 70 74 77 87 92 94
56 73 91 94 95 94 91 90 91 91 91 86 88 87 88 87 79 74 70 67 70 75 81 89 93 91 89
91 94 93 95 97 91 91 93 87 89 91 92 89 88 89 86 81 74 77 81 83 88 89 92 97 99 90
88 89 92 94 97 97 96 93 91 85 92 94 92 93 90 83 77 82 86 86 92 97 97 97 98 98 92
88 89 92 93 94 96 99 97 91 91 93 95 93 96 95 86 84 87 88 91 95 97 98 98 96 98 96
89 85 82 80 81 85 94 98 97 96 95 93 93 93 91 93 91 89 90 92 95 97 94 85 89 98 83
81 80 81 79 78 82 92 97 96 95 96 90 90 89 93 95 93 90 91 90 97 98 92 79 77 77 60
78 77 77 76 76 82 93 94 94 93 96 90 87 89 92 97 97 96 97 93 94 92 85 86 81 61 47
73 69 72 74 74 78 91 95 95 95 94 87 87 94 98 98 97 98 97 96 98 93 83 82 79 57 43
70 71 75 75 72 72 85 95 96 96 96 93 87 94 95 96 96 95 98 95 97 97 83 81 74 71 61
71 74 79 78 78 78 81 90 96 96 97 95 89 95 97 97 98 98 98 97 97 97 94 76 75 67 62

GFSFLT2_prec_cthk_030.txt.gz
RH
19 17 17 23 23 29 35 40 42 40 39 47 49 48 46 47 49 49 52 54 54 54 54 54 53 58 62
17 19 22 23 29 38 42 45 45 40 44 46 51 51 50 51 52 52 51 53 50 49 52 50 55 56 59
28 28 29 40 41 42 40 38 39 45 59 67 74 73 73 70 64 61 59 59 59 60 61 59 62 57 57
40 44 48 45 44 37 44 61 73 80 78 78 82 81 80 81 79 77 73 72 71 71 69 60 58 57 49
47 48 44 41 49 66 75 77 81 85 81 83 84 82 80 78 74 73 73 72 75 76 72 63 58 54 49
46 42 46 68 75 80 83 82 77 88 86 81 85 82 82 83 84 85 80 79 73 72 71 67 69 72 73
44 62 76 81 83 83 83 85 87 87 87 76 84 82 84 84 84 89 87 82 76 71 67 68 68 68 70
78 80 84 86 88 88 85 85 85 87 89 83 85 83 85 85 85 86 84 78 75 74 74 73 72 73 74
84 87 85 86 87 84 81 81 79 86 88 90 83 86 88 84 84 81 84 84 86 84 84 88 93 96 94
81 82 80 79 82 84 82 82 84 84 89 88 83 86 88 82 88 87 88 86 89 90 94 97 96 94 93
78 75 74 74 76 79 82 87 89 89 91 89 83 88 92 91 88 89 88 88 92 94 96 96 97 96 86
74 72 69 67 73 76 78 90 95 92 92 89 85 86 91 92 90 88 93 96 96 96 94 93 96 94 95
71 69 62 64 68 69 72 88 94 93 94 86 88 91 94 92 93 94 95 92 95 90 90 91 87 77 70
72 67 65 70 71 72 66 79 91 90 93 85 90 91 93 95 95 97 97 96 89 86 87 88 72 59 46
76 68 68 73 74 74 75 73 92 93 91 85 89 90 94 96 95 97 96 98 97 87 90 87 69 48 34
78 71 71 73 73 74 75 76 90 95 95 90 87 86 87 90 94 94 97 98 95 87 87 81 76 60 37
80 73 75 77 75 75 76 75 82 95 97 93 87 88 91 91 91 98 96 97 90 91 86 76 70 68 61

GFSFLT2_prec_cthk_033.txt.gz
RH
19 19 21 25 27 33 36 36 35 32 36 38 42 47 52 55 56 54 50 48 52 58 57 57 62 62 60
18 21 25 28 34 36 36 32 36 48 59 64 66 67 68 71 73 73 73 73 68 56 55 58 59 60 56
25 24 29 35 36 32 34 53 63 64 67 68 72 76 78 78 77 77 76 77 76 76 73 63 55 57 59
36 38 37 33 34 50 61 66 70 72 71 73 76 78 78 76 74 75 77 77 74 74 76 75 73 69 67
44 42 37 43 62 67 70 72 74 76 70 73 75 74 74 77 79 79 78 79 84 83 80 75 75 79 79
43 42 57 68 70 74 76 74 67 73 72 70 78 75 77 75 75 81 82 86 88 88 84 78 74 75 74
45 65 72 76 78 76 73 73 72 71 73 72 78 76 73 74 81 85 86 85 85 81 75 71 68 63 60
73 75 80 82 79 76 73 72 68 69 77 78 77 75 75 76 81 82 84 85 85 83 82 82 79 74 69
79 81 81 77 77 76 72 73 69 70 78 82 80 75 74 77 83 88 91 89 87 85 85 85 87 89 89
81 78 75 73 73 74 72 70 71 72 82 85 77 73 77 76 79 85 89 91 90 92 94 94 92 90 88
79 72 71 69 63 68 73 72 63 78 87 90 77 78 82 78 80 88 94 94 93 94 96 94 91 94 90
72 68 68 63 62 69 73 74 71 75 90 93 80 82 84 85 83 83 90 94 95 97 93 94 94 88 75
68 71 70 64 65 68 70 72 73 72 93 95 86 84 89 90 88 86 88 91 96 95 92 89 75 66 61
72 76 73 68 71 70 67 67 69 73 91 95 89 86 89 92 93 89 95 96 95 91 89 83 77 61 45
83 81 74 70 72 72 73 71 70 70 88 93 90 87 88 89 87 92 95 96 94 93 83 77 69 52 35
84 83 74 74 76 75 74 71 69 70 87 93 88 81 82 82 89 91 95 95 94 91 86 80 73 63 42
84 85 80 82 78 77 80 77 72 70 83 95 92 86 85 87 85 97 96 94 90 89 81 73 62 67 66

GFSFLT2_prec_cthk_036.txt.gz
RH
20 24 27 29 30 32 32 32 29 32 38 46 54 57 59 62 64 65 66 66 66 67 66 66 63 59 55
22 25 28 30 32 34 36 32 39 49 55 58 61 63 66 68 69 69 69 70 72 72 73 73 72 74 67
26 27 28 33 34 33 35 50 60 62 63 62 63 63 66 69 70 69 68 69 70 71 71 74 74 73 72
31 29 37 34 35 39 53 64 66 68 62 63 61 61 64 66 69 69 68 69 70 71 76 77 79 78 74
40 42 33 34 44 63 65 67 69 68 59 61 60 64 67 69 69 66 67 71 73 76 79 80 81 81 80
43 40 39 49 68 71 71 68 65 69 68 59 65 69 70 70 68 69 71 76 81 84 84 85 85 84 83
40 43 55 72 74 73 72 68 67 64 71 60 70 72 73 70 68 74 76 81 84 85 84 84 81 77 72
45 60 76 79 80 75 70 62 53 59 74 62 72 74 76 68 69 71 79 85 85 85 86 86 87 88 85
68 80 83 82 78 73 67 63 56 55 59 58 76 78 77 68 70 76 84 88 91 94 94 93 91 91 91
84 83 83 78 73 73 70 64 65 57 62 57 77 83 70 72 74 76 81 85 90 94 94 92 92 91 88
84 82 73 67 72 74 72 72 70 64 65 65 78 88 78 74 77 78 80 83 88 92 95 94 90 90 84
76 72 68 72 74 73 72 75 75 70 65 71 77 91 81 76 78 77 79 83 93 94 95 95 95 90 86
75 74 77 79 75 70 70 72 73 73 72 72 79 93 87 80 79 80 80 82 94 96 92 86 83 81 74
77 80 82 81 75 72 72 73 70 68 71 72 79 95 90 84 84 82 84 90 93 93 89 87 81 72 62
80 81 82 84 78 79 78 76 77 71 66 68 76 95 91 83 84 85 87 94 94 88 86 77 71 73 66
81 84 89 85 84 84 81 82 80 74 69 67 75 92 85 78 83 88 94 94 91 91 86 77 69 69 73
92 94 91 90 88 85 84 84 83 77 72 72 82 94 89 81 79 88 94 92 91 93 85 82 71 76 76

GFSFLT2_prec_cthk_039.txt.gz
RH
26 26 26 24 26 27 28 26 25 28 33 40 45 49 55 57 57 59 60 61 63 66 68 68 69 73 72
28 25 26 29 30 33 32 30 28 35 44 53 57 59 58 60 61 60 61 62 65 65 65 66 68 68 69
25 26 29 33 35 34 31 32 39 48 58 60 58 55 61 60 60 60 62 65 67 67 63 62 63 65 68
28 28 33 37 38 35 34 44 54 64 63 58 59 59 59 56 58 63 67 70 68 65 66 68 68 67 66
31 35 35 35 35 38 48 59 65 69 63 56 61 58 54 57 63 68 70 72 66 70 72 72 73 76 79
35 41 36 35 43 53 63 71 68 69 67 48 57 54 55 61 68 72 75 66 69 72 76 78 78 80 78
40 41 39 48 59 69 77 75 68 64 64 51 53 47 48 58 70 78 66 65 73 79 81 82 84 85 83
39 43 57 72 80 81 79 68 59 59 64 60 53 48 45 57 70 75 64 72 78 79 81 84 89 91 90
51 72 80 84 84 78 66 61 57 55 60 61 55 52 48 56 71 73 69 73 75 78 80 88 90 90 90
73 74 75 76 76 75 70 69 66 57 66 64 61 63 48 64 74 73 69 72 73 77 83 91 94 88 85
68 71 72 73 73 74 77 77 70 64 67 69 61 63 65 64 76 74 69 72 75 81 90 95 96 92 85
71 71 72 74 77 79 80 77 74 73 68 71 66 65 63 69 82 76 73 76 80 85 90 93 94 94 92
68 71 75 76 77 77 78 75 78 76 76 76 73 67 67 76 86 78 74 78 85 89 91 89 86 83 71
71 72 74 77 80 82 79 80 78 78 82 77 74 70 67 87 92 79 80 83 83 91 89 87 84 77 71
78 80 83 86 88 87 86 84 82 77 75 75 74 72 72 93 89 79 81 82 91 90 89 87 79 74 72
85 84 84 84 83 85 86 84 81 79 77 72 70 68 83 91 82 84 83 84 91 90 91 88 79 77 82
90 91 91 89 86 84 83 81 79 78 76 72 72 77 91 89 77 82 84 90 91 90 89 84 81 79 79

GFSFLT2_prec_cthk_042.txt.gz
RH
27 27 26 25 21 21 22 22 24 23 29 33 37 42 44 47 49 52 54 55 57 59 61 63 66 67 67
26 25 25 22 22 23 24 25 22 24 35 40 46 48 53 56 58 57 58 58 59 60 61 61 63 64 66
24 24 21 22 25 26 26 25 28 33 41 47 51 56 61 62 61 60 61 59 60 65 67 67 67 63 59
25 24 27 29 31 32 28 30 34 43 50 55 61 58 59 58 55 56 58 58 63 69 71 67 61 62 62
29 29 31 32 33 34 38 43 50 61 61 61 61 55 53 53 52 51 56 62 71 75 74 66 67 68 68
30 32 31 32 39 51 58 60 63 74 66 57 59 51 51 53 52 53 51 59 74 78 69 69 71 71 72
33 33 34 46 61 63 65 68 67 63 59 49 47 44 50 49 53 51 51 61 74 77 70 71 70 72 74
34 39 56 65 66 66 65 62 57 56 59 56 51 49 50 50 52 51 53 62 75 75 70 69 70 73 75
45 62 66 68 70 68 65 63 57 59 66 62 56 52 50 50 53 56 60 65 73 73 68 70 71 75 77
61 62 63 65 67 69 69 67 66 62 72 65 61 62 49 50 54 59 61 65 75 74 69 70 73 77 79
57 58 60 63 66 70 74 75 71 70 74 72 66 68 67 54 51 57 67 67 73 73 70 72 77 83 82
59 62 64 66 69 71 74 79 82 77 76 81 74 73 68 60 53 56 72 72 77 70 70 74 83 86 88
65 69 73 75 77 77 82 82 86 85 85 82 79 76 73 66 60 62 76 82 79 71 73 81 85 88 84
72 77 79 81 83 82 80 81 82 85 87 82 81 79 73 70 69 79 88 85 76 76 79 85 88 87 83
78 83 87 89 92 91 89 84 81 78 76 79 80 77 74 73 83 87 81 75 75 77 83 84 84 85 82
85 91 94 95 94 94 92 89 83 79 74 71 69 64 67 80 91 83 78 77 78 83 84 80 81 83 79
89 94 95 95 97 94 92 91 87 79 73 71 69 70 77 85 84 84 83 82 85 83 82 82 79 81 84

GFSFLT2_prec_cthk_045.txt.gz
RH
30 27 24 21 18 15 16 17 16 17 21 20 26 31 33 37 39 43 45 49 50 54 58 62 61 61 59
28 24 22 20 19 19 19 18 18 17 22 29 32 38 39 45 49 51 55 59 60 60 59 59 56 59 64
25 24 22 20 18 19 20 19 19 23 29 35 42 46 52 56 57 60 59 57 57 57 60 60 60 65 66
28 27 24 22 24 24 20 22 27 37 43 50 53 54 55 54 53 52 52 55 52 53 59 61 64 68 70
29 28 29 28 24 24 28 36 45 52 51 53 53 52 51 52 53 51 51 53 53 52 53 61 70 73 71
30 31 30 27 26 38 50 52 48 54 50 49 51 45 44 44 45 48 51 52 51 53 50 58 68 75 68
31 29 28 33 49 54 55 56 55 52 51 48 50 46 49 48 51 52 51 52 51 52 55 63 70 73 68
29 35 47 56 57 57 56 55 52 54 58 53 54 53 54 53 55 53 52 52 55 55 55 61 69 71 67
43 51 53 56 58 57 58 60 55 56 65 62 58 55 55 55 60 56 54 53 53 53 58 63 71 71 64
46 49 51 55 61 65 67 68 68 63 73 66 63 66 55 61 70 62 57 55 54 54 56 61 71 72 66
46 50 55 60 67 73 78 81 79 76 77 75 69 72 73 62 64 63 61 56 55 55 58 65 72 74 67
52 57 62 67 75 79 84 86 89 83 79 82 75 78 74 68 62 61 60 57 56 59 63 73 76 68 66
60 66 71 76 82 84 90 89 91 91 85 81 78 77 76 71 64 60 56 59 64 65 76 75 69 68 67
68 73 78 84 90 92 90 91 89 86 90 83 80 76 72 70 66 62 67 76 76 79 75 70 70 71 74
76 79 84 89 93 95 94 92 90 86 83 80 75 72 72 71 70 79 84 83 80 76 76 74 76 79 78
81 84 87 90 92 95 97 93 89 85 80 75 71 68 64 72 88 86 81 76 77 82 84 84 81 81 77
82 86 90 93 95 94 92 90 86 81 77 73 72 70 70 81 85 85 81 86 89 87 83 81 77 76 76

GFSFLT2_prec_cthk_048.txt.gz
RH
34 31 30 27 23 20 18 16 14 11 13 18 20 26 28 29 31 33 36 39 40 42 45 47 54 55 55
32 32 29 24 22 18 15 12 12 10 15 20 23 26 29 35 40 45 46 49 50 51 53 54 55 56 57
32 28 26 22 19 16 16 13 13 14 19 23 29 36 43 46 51 50 48 49 51 51 54 54 56 54 54
26 26 23 20 19 20 18 16 18 25 33 39 43 45 46 46 44 42 41 41 46 50 54 54 56 54 56
26 25 24 23 23 20 22 27 34 41 40 43 44 43 45 44 44 43 41 41 44 45 50 51 53 53 51
28 28 25 24 25 29 37 39 36 39 40 39 42 40 44 45 45 44 46 47 46 45 46 45 49 52 51
29 26 27 29 36 40 42 42 41 41 44 40 47 43 48 47 50 50 49 51 51 50 49 50 51 52 53
26 31 37 41 45 47 47 46 45 49 59 47 52 50 52 52 55 56 57 55 54 55 52 51 51 51 52
35 39 43 47 49 51 53 56 51 53 69 62 60 60 56 55 61 65 65 62 61 57 53 52 50 51 53
39 43 47 52 58 63 65 65 66 59 75 70 70 73 56 61 66 73 71 70 64 59 56 53 53 53 53
42 47 53 60 66 72 76 78 77 78 83 83 75 77 73 61 63 70 71 68 64 59 58 55 53 55 55
48 54 60 65 72 76 83 87 89 88 86 89 81 82 75 67 62 62 65 63 60 58 58 57 56 58 64
57 62 65 68 72 76 85 88 88 92 91 89 85 83 79 71 62 59 58 56 63 61 61 60 61 67 68
64 66 67 70 75 79 81 87 85 87 91 88 86 84 78 73 68 60 66 73 74 75 75 78 78 74 69
67 67 69 71 75 82 87 87 85 82 83 87 85 80 75 73 69 75 84 84 81 79 78 75 73 73 71
68 69 69 70 72 77 83 83 80 81 76 74 72 68 68 76 85 86 83 78 77 82 84 83 81 79 76
70 72 72 73 75 75 75 75 72 70 69 71 73 80 80 83 85 90 84 84 89 89 85 84 82 81 79

GFSFLT2_prec_cthk_051.txt.gz
RH
58 50 42 35 29 27 25 22 18 15 11 13 18 20 26 28 28 29 30 32 33 34 37 38 42 44 47
48 40 34 31 30 26 22 18 13 10 9 14 20 22 25 28 33 37 39 40 43 44 46 47 47 47 48
37 35 33 29 26 22 17 14 12 11 16 21 25 28 35 36 40 41 40 41 41 44 44 47 48 49 50
35 32 30 24 21 19 17 15 17 24 27 28 29 31 32 33 35 35 35 36 40 41 41 41 47 48 50
30 28 22 21 21 19 20 25 27 28 27 28 30 31 33 35 36 37 37 38 43 43 43 44 46 45 46
25 23 22 22 23 27 31 32 31 32 33 32 37 36 39 40 42 43 44 47 48 48 47 46 45 48 48
25 25 24 28 32 35 37 36 39 40 44 37 45 43 48 49 55 57 56 56 57 54 53 52 52 53 52
22 25 33 36 39 40 42 42 43 49 61 48 52 51 52 56 66 67 67 65 61 61 59 58 58 57 55
28 34 36 39 42 44 48 52 50 53 64 67 59 59 59 60 72 79 77 70 66 64 63 62 61 59 55
34 37 40 45 52 58 60 59 61 56 71 73 68 77 62 63 71 77 78 72 67 65 64 62 61 60 56
38 42 49 56 60 62 64 67 68 74 84 89 76 80 80 68 69 75 73 69 67 66 65 62 58 56 55
44 50 56 59 59 61 64 67 71 78 81 87 79 81 79 75 71 69 66 64 61 59 60 58 58 58 58
52 58 59 58 61 61 62 65 69 79 80 81 80 81 82 77 69 64 60 58 65 63 64 66 68 69 64
60 60 59 63 66 66 63 62 61 63 73 75 75 75 73 72 68 62 67 73 78 82 83 82 82 80 75
62 60 65 70 76 79 79 73 68 63 60 66 71 72 74 79 80 81 83 84 82 82 85 85 84 82 79
63 64 69 75 79 83 85 86 84 83 82 84 86 86 87 86 87 87 86 84 83 88 90 88 87 86 83
66 65 71 77 81 82 84 86 87 88 90 92 93 95 92 90 88 89 82 86 89 89 89 88 87 85 81

GFSFLT2_prec_cthk_054.txt.gz
RH
82 74 68 60 53 43 36 31 29 26 21 18 22 22 21 22 24 30 32 32 34 34 35 36 37 40 39
72 63 54 46 36 32 32 30 24 19 16 14 19 22 27 29 31 31 32 33 34 35 36 37 39 40 41
58 50 40 33 33 31 27 22 17 14 18 23 25 25 25 28 30 30 30 30 31 33 34 36 37 40 42
43 37 36 34 30 27 23 18 19 24 25 26 25 26 27 28 29 29 30 30 32 35 35 35 35 35 40
37 37 30 27 25 23 23 26 27 26 25 26 27 28 32 34 37 38 38 38 39 42 41 43 45 45 45
30 29 28 26 25 27 30 30 30 28 28 29 37 37 42 43 46 49 50 50 49 50 49 50 50 50 51
29 28 27 25 29 31 33 32 33 38 41 34 43 40 44 47 54 58 61 63 60 59 58 58 58 58 61
25 23 26 34 35 36 36 38 42 46 49 38 42 41 46 51 62 73 78 75 70 68 65 65 66 65 63
21 28 32 34 36 39 44 48 43 43 47 46 44 45 51 54 67 77 82 80 71 66 66 65 65 65 63
29 33 36 40 46 50 49 47 51 45 48 51 50 54 46 55 65 73 77 77 70 70 67 63 64 64 62
35 40 46 51 53 51 52 59 58 56 55 57 52 55 61 57 59 68 72 71 69 65 63 61 59 58 58
43 50 55 56 53 54 64 68 69 67 63 63 59 59 58 55 56 60 64 65 64 63 64 65 66 65 65
52 56 57 55 56 63 68 71 72 74 76 75 73 72 74 75 74 72 67 66 71 72 79 84 85 86 84
56 57 56 55 61 67 69 73 74 75 79 81 84 87 87 87 85 81 84 86 85 86 85 86 88 89 87
57 59 58 55 61 69 73 72 74 77 79 84 89 94 95 91 86 85 84 83 83 84 84 88 89 88 88
60 62 63 59 59 65 71 74 74 77 81 84 87 90 90 91 93 88 82 80 86 91 90 89 89 87 85
64 67 68 69 66 67 68 71 74 79 85 88 90 91 89 87 89 92 85 86 88 90 92 92 91 89 92

GFSFLT2_prec_cthk_057.txt.gz
RH
97 97 88 83 74 62 58 53 48 36 30 29 28 29 29 29 29 30 32 32 31 31 35 36 36 36 41
90 86 79 70 66 61 50 40 34 31 27 23 22 23 23 25 29 29 30 30 31 33 35 34 36 36 36
83 72 63 57 49 40 36 33 28 23 23 25 24 25 24 24 27 29 28 28 28 29 30 30 32 34 36
68 59 48 41 38 33 30 24 21 23 25 26 25 25 26 27 26 27 28 29 30 33 37 37 37 39 42
42 37 33 29 29 26 23 25 26 25 26 27 28 29 32 33 34 35 35 36 37 40 44 46 50 50 50
28 27 27 25 22 22 28 30 30 28 30 34 35 34 34 35 35 36 36 39 42 50 53 55 58 58 56
24 23 22 19 20 26 29 31 32 33 37 35 36 33 34 33 36 37 38 41 45 54 63 68 70 68 65
18 16 16 23 29 31 33 36 39 41 40 36 39 36 36 35 38 42 46 47 50 58 64 67 68 70 72
13 17 24 28 32 36 42 45 42 40 46 50 47 41 36 36 40 45 50 54 55 58 62 66 70 70 68
23 28 33 37 43 46 46 44 46 53 58 58 57 54 47 40 42 47 50 56 60 60 60 60 60 61 60
33 37 42 47 49 48 47 49 60 62 65 65 62 64 65 60 59 59 60 59 59 60 63 63 62 63 61
39 44 49 51 50 49 51 59 64 66 68 70 69 70 70 71 72 73 74 74 74 73 75 78 79 80 80
43 48 50 51 52 49 53 60 65 69 70 72 74 76 77 78 79 78 75 78 79 81 82 82 81 83 84
46 49 51 54 56 55 53 57 59 66 69 72 77 80 82 85 85 79 81 82 80 80 80 84 83 82 86
47 50 54 58 61 63 62 60 63 63 65 72 78 82 86 89 84 83 80 79 80 82 84 85 84 83 88
49 53 57 59 61 64 66 65 61 63 65 70 74 80 86 90 90 84 83 83 87 87 88 90 89 91 90
52 55 57 59 61 63 65 66 66 58 59 66 72 82 83 83 89 90 84 85 87 87 89 91 91 91 91

GFSFLT2_prec_cthk_060.txt.gz
RH
96 98 98 98 96 91 86 83 76 68 59 51 44 38 35 39 40 38 36 34 35 35 35 35 36 36 36
98 97 97 96 91 79 77 70 63 51 43 35 32 29 28 26 26 27 29 29 30 31 31 30 32 34 35
96 90 85 83 79 67 55 41 37 31 27 25 22 22 22 21 22 26 25 25 30 31 31 31 31 32 35
86 80 70 53 44 37 32 28 23 18 21 21 21 23 24 24 23 24 24 24 24 24 28 30 30 31 35
52 38 32 31 28 24 22 20 20 20 23 25 26 25 25 26 26 25 25 25 26 27 32 33 35 39 42
25 23 23 21 21 19 18 21 23 24 29 30 33 33 31 29 28 27 27 28 29 30 36 36 37 39 44
19 18 17 18 17 14 24 27 31 35 38 37 39 37 36 36 33 31 31 32 32 34 39 42 41 45 49
16 17 17 17 22 27 32 36 42 46 45 39 40 44 48 50 43 34 35 36 38 39 42 48 47 46 50
9 10 15 24 29 34 39 42 41 41 42 43 51 56 56 54 50 47 42 42 46 48 47 49 52 55 51
16 23 27 30 34 38 40 40 41 43 51 56 58 59 58 60 60 59 58 59 62 63 64 63 64 67 64
26 29 32 36 39 41 42 44 45 48 57 61 60 62 63 62 67 67 68 72 74 75 73 70 68 71 73
30 33 36 40 42 44 46 49 50 51 57 63 61 63 64 65 68 72 74 78 77 75 78 76 73 75 78
34 36 40 42 44 47 50 54 57 58 60 62 63 63 64 68 72 74 75 77 78 77 76 77 77 78 78
37 40 42 45 48 51 52 54 56 58 60 60 59 61 63 68 76 75 78 79 78 78 82 84 84 83 83
40 43 48 52 53 53 54 55 56 56 60 60 53 56 61 69 76 81 79 80 80 81 83 85 85 89 90
46 50 53 55 56 57 57 58 58 60 63 59 54 50 58 70 85 85 85 82 85 86 87 87 87 90 90
50 54 56 58 59 58 57 57 60 65 64 65 62 57 58 66 80 93 85 86 86 87 91 92 91 89 90

GFSFLT2_prec_cthk_066.txt.gz
RH
96 98 94 89 81 79 80 86 92 91 84 81 72 66 60 52 43 38 41 39 38 38 40 44 48 49 48
93 88 82 82 90 93 93 88 81 71 53 39 28 20 15 14 14 17 18 19 21 24 25 26 27 29 31
82 81 80 83 91 88 76 59 40 28 19 11 9 9 10 11 12 13 14 16 19 22 23 24 24 25 25
81 85 88 79 70 55 36 27 21 15 9 8 9 11 13 16 18 19 20 21 24 26 26 26 25 26 27
82 74 64 52 37 30 22 16 12 9 10 13 17 18 20 21 22 22 22 26 29 29 30 31 31 32 31
55 40 33 30 24 16 14 13 10 15 17 18 20 21 21 22 23 24 28 33 36 36 37 39 40 40 37
27 23 17 17 16 15 14 13 17 20 20 19 21 22 24 25 27 30 32 37 41 44 47 48 48 47 47
14 13 14 15 15 13 16 19 22 23 24 22 24 25 27 28 29 32 39 43 46 48 52 53 54 55 55
13 12 12 11 14 19 22 25 26 26 27 28 30 31 35 35 34 36 42 46 47 49 52 57 59 61 60
16 17 18 22 23 24 27 28 30 31 32 34 35 35 33 40 42 37 37 42 46 48 51 57 64 64 64
23 24 25 26 27 28 30 32 34 36 38 41 39 40 42 39 43 44 38 36 41 45 53 61 65 66 66
28 28 28 28 30 31 33 36 38 40 44 46 44 45 46 45 44 44 42 39 40 45 57 68 70 68 67
31 30 30 32 33 35 37 38 42 47 48 50 47 48 51 51 48 48 43 41 43 49 61 71 70 69 68
33 32 33 35 37 39 40 44 48 51 53 52 52 54 56 56 54 49 44 47 46 54 62 71 73 72 72
35 36 38 41 43 45 49 51 53 55 54 57 60 60 61 61 58 54 48 46 51 55 62 72 78 76 77
38 42 45 49 52 55 56 57 59 59 60 63 65 64 65 67 68 61 55 50 51 54 59 66 77 83 81
46 50 55 58 63 62 63 65 64 65 67 71 71 69 66 65 66 72 61 55 54 55 59 64 72 83 87

GFSFLT2_prec_cthk_069.txt.gz
RH
95 98 98 97 98 97 97 94 91 87 90 94 86 77 65 46 32 26 27 27 26 27 28 28 30 31 32
98 99 98 97 97 93 87 86 84 83 87 80 50 30 20 16 15 16 16 17 19 19 19 20 21 22 23
95 95 93 88 88 89 85 90 84 64 42 32 25 16 9 9 13 16 17 18 20 21 22 23 23 24 24
94 88 85 85 83 78 67 57 42 32 24 12 8 10 11 14 16 17 17 17 17 18 20 22 24 25 26
87 84 79 72 60 48 39 32 23 13 9 11 13 16 19 19 19 18 18 18 20 24 27 29 30 32 33
76 60 54 46 36 28 19 15 12 11 14 17 19 21 20 20 20 20 21 21 22 23 29 34 37 41 42
35 28 22 17 16 15 13 12 14 18 21 22 21 21 22 22 23 23 24 25 26 26 29 37 42 45 47
16 16 16 16 15 14 13 19 23 26 25 22 23 24 27 28 28 30 31 31 31 31 31 36 42 45 49
20 18 17 17 17 19 24 26 28 28 26 26 26 27 29 31 33 35 35 32 32 34 35 37 39 43 46
22 23 23 24 26 27 28 29 30 29 30 30 31 30 30 35 39 39 39 37 37 36 37 37 39 40 46
26 27 28 29 31 32 32 31 31 31 33 35 35 35 37 37 40 42 41 42 40 38 39 40 42 45 51
30 30 31 31 31 31 31 32 33 35 37 39 39 40 41 41 44 45 45 44 38 39 43 44 45 51 63
32 32 32 31 31 32 34 36 38 40 41 42 44 45 46 49 49 50 48 48 46 44 44 46 46 52 64
34 34 32 32 34 36 39 41 43 44 47 51 50 50 53 55 56 55 57 58 54 50 47 47 48 53 63
36 35 35 36 39 43 46 48 51 54 55 56 55 58 61 61 60 60 61 60 57 53 51 49 49 54 59
40 40 39 42 47 51 55 59 59 60 61 61 61 63 63 64 64 64 65 62 58 54 53 52 50 52 53
43 42 46 50 54 59 63 65 67 67 65 64 65 66 63 61 65 72 65 62 57 53 51 51 52 51 52

GFSFLT2_prec_cthk_072.txt.gz
RH
83 87 92 88 96 98 98 98 98 97 96 94 91 87 86 81 76 64 47 32 30 27 25 24 23 22 25
93 91 89 97 97 98 98 97 96 95 93 94 91 86 79 48 29 25 24 22 20 18 18 19 20 20 21
95 96 99 96 94 97 94 94 96 88 88 78 59 41 30 24 18 20 17 16 15 15 15 16 19 22 22
93 99 97 94 93 90 90 90 78 61 46 36 28 19 11 10 12 15 16 16 16 15 16 18 21 23 24
94 94 95 96 91 76 60 50 42 33 22 15 10 11 14 17 19 18 17 17 17 19 21 24 24 24 26
69 56 45 37 35 30 25 19 16 12 10 13 15 18 22 22 21 21 20 20 20 20 21 23 24 26 27
18 18 18 18 18 19 19 18 15 16 18 21 24 27 26 25 23 23 24 24 24 24 24 25 26 26 28
17 18 19 19 20 20 21 20 21 25 27 29 29 28 27 26 26 26 27 27 27 27 27 27 28 29 30
24 24 23 22 22 21 21 24 27 29 31 33 32 30 29 29 28 29 29 29 30 30 30 30 30 29 30
24 24 23 23 24 27 29 30 31 32 33 33 33 34 34 33 32 33 33 34 35 35 34 33 31 31 33
26 26 27 28 29 29 29 29 30 32 33 35 35 37 40 39 36 36 38 40 40 38 36 36 38 37 36
30 30 30 31 31 30 31 31 31 33 36 39 41 43 44 43 40 41 43 45 45 44 44 44 43 43 42
31 31 33 33 32 32 31 31 33 36 41 44 47 47 48 46 45 47 47 50 51 52 53 52 50 48 44
33 33 34 34 34 33 33 34 37 40 44 48 51 55 54 51 53 54 56 58 59 59 57 56 53 49 48
35 36 38 38 37 39 38 40 44 47 51 54 57 59 58 58 58 59 59 59 59 60 59 55 54 51 48
40 41 43 43 44 46 46 49 51 56 58 60 61 60 58 59 60 59 59 58 59 59 58 54 50 51 48
48 49 48 47 49 49 50 52 55 59 64 68 68 66 65 63 64 65 61 64 63 58 56 53 50 48 48

GFSFLT2_prec_cthk_075.txt.gz
RH
69 73 83 84 89 92 94 91 90 93 97 96 97 96 98 93 93 94 88 86 74 60 46 36 30 27 27
74 75 85 90 96 98 92 89 90 88 93 96 97 97 96 95 93 84 66 50 39 28 26 27 26 26 26
77 80 84 90 94 94 93 88 89 88 90 93 91 93 89 75 55 38 34 32 23 19 17 19 19 22 21
77 82 85 88 90 92 90 89 87 87 84 77 67 52 38 29 21 16 13 14 15 17 16 15 17 21 22
65 65 68 69 70 69 64 58 49 39 31 22 17 13 11 11 11 14 16 19 20 18 18 21 23 23 23
27 25 22 19 18 18 18 18 17 16 13 13 13 15 16 17 20 24 25 23 23 21 21 21 22 23 24
15 16 16 17 18 20 21 20 18 18 17 18 21 23 24 26 27 26 25 26 26 26 23 23 23 23 24
20 21 21 21 22 21 20 19 18 18 21 23 25 27 27 27 27 27 28 28 27 26 26 26 26 26 26
24 24 24 22 21 20 18 20 21 23 24 25 25 26 26 26 27 28 29 29 29 28 29 30 30 30 30
23 22 23 23 24 25 26 27 28 26 26 28 28 28 28 29 31 33 33 32 32 34 35 34 33 32 32
26 26 27 27 27 28 29 30 30 31 31 31 30 30 32 33 36 39 38 36 37 38 38 37 38 39 39
29 29 30 29 30 30 31 33 33 34 35 34 33 35 38 38 38 41 39 39 40 42 43 45 46 46 47
33 33 34 35 34 34 35 36 36 36 36 34 36 39 41 44 44 46 44 46 48 50 52 53 55 56 54
37 38 39 40 40 40 41 40 38 40 42 39 39 43 46 49 52 52 52 55 58 57 56 59 60 60 57
43 44 45 47 47 46 46 45 45 47 50 48 47 48 51 55 57 56 55 57 58 58 58 57 58 58 56
48 50 52 52 52 52 52 51 51 54 54 53 53 55 55 59 61 60 61 59 60 60 60 58 58 59 52
53 54 56 58 57 57 58 58 57 58 59 58 60 61 61 62 66 68 67 67 66 66 66 63 58 56 54

GFSFLT2_prec_cthk_078.txt.gz
RH
51 52 58 61 65 74 82 83 92 93 92 91 93 95 95 98 98 97 99 96 97 96 91 82 76 70 58
55 58 60 65 71 75 82 84 92 93 92 94 90 89 90 92 97 93 96 97 90 79 72 62 51 45 42
59 64 63 67 71 74 78 83 84 86 85 83 83 85 88 87 87 81 71 62 55 39 34 32 32 33 33
45 44 45 44 47 48 51 54 58 62 63 60 56 54 51 45 37 29 24 20 19 19 20 19 18 19 23
32 33 33 32 33 33 36 37 36 34 29 24 20 17 16 14 13 13 13 14 15 17 19 21 22 22 24
17 17 18 19 20 20 21 20 20 19 17 16 17 16 16 17 18 19 21 23 25 25 24 24 25 24 27
19 19 20 21 21 21 21 19 18 16 14 14 16 17 18 18 20 21 22 22 22 23 25 27 26 26 25
22 22 22 22 21 21 20 18 16 15 16 18 20 21 21 21 23 23 22 23 23 24 25 25 25 26 26
23 22 22 21 19 19 18 18 18 19 21 23 22 24 24 25 26 26 26 26 27 29 29 30 31 30 30
24 23 23 23 23 22 23 23 24 25 26 27 29 30 30 30 29 29 29 30 31 32 32 33 33 33 33
31 31 30 30 30 30 30 30 30 30 32 34 35 35 34 32 31 31 32 33 34 34 34 35 36 35 35
35 35 35 35 35 35 35 36 36 37 39 40 39 38 38 36 31 32 35 38 38 38 38 39 41 42 43
39 41 42 42 41 40 40 41 41 42 42 44 43 41 41 40 35 37 40 41 41 42 45 47 48 49 49
45 45 46 46 46 46 45 47 47 48 50 50 50 48 46 46 42 42 45 47 49 47 48 50 51 53 53
48 47 46 46 45 47 49 51 54 55 58 61 60 55 54 53 48 50 51 53 54 54 53 53 55 56 56
48 43 44 46 47 49 51 55 62 62 64 66 65 62 59 58 58 55 57 60 63 62 62 60 60 63 60
45 41 42 44 48 52 56 63 70 71 72 71 70 69 68 65 64 65 63 66 66 67 66 64 61 65 62